Weather in Arykbalyk

Kazakhstan     52°57′13″N   68°12′18″E
temp.,
°C
wind,
m/s
gust,
m/s
humid.,
%
clouds,
%
prec.,
mm/h
press.,
hPa
HPBL,
m
16 may, sun
sun1600:00+17sw3367100 1.9 102243
03:00+17wsw48606 0.1 1021101
06:00+15sw49725 0.1 1021145
09:00+21w46515 0.0 1020309
12:00+27nw463599 0.0 10201007
15:00+29nnw562910 0.0 10192238
18:00+29nnw482618 0.0 10193172
21:00+23nw22425 0.0 101911
17 may, mon
mon1700:00+20nw1246100 0.0 101911
03:00+19w114799 0.0 101911
06:00+19wsw224983 0.0 102011
09:00+25w243874 0.0 1021239
12:00+28w45295 0.0 10201005
15:00+30nw672230 0.0 10193648
18:00+30wnw48225 0.0 10172965
21:00+19nnw61054100 0.3 1019183
18 may, tue
tue1800:00+19s455130 0.4 101764
03:00+19sw38506 0.0 1016128
06:00+17wsw33616 0.0 101639
09:00+23nw354576 0.0 1015310
12:00+27wnw5633100 0.0 10141158
15:00+28w582995 0.0 10123549
18:00+27nw7103345 0.1 10112406
21:00+18w71362100 0.3 1012397
19 may, wed
wed1900:00+15n49813 0.3 1014354
03:00+13n510870 0.0 1014421
06:00+12nne71189100 0.1 1016651
09:00+11nne81185100 0.1 1018896
12:00+12ne81067100 0.1 10201166
15:00+15ne79473 0.0 10201413
18:00+17ne79385 0.0 10201680
21:00+13ne41051100 0.0 1021302
20 may, thu
thu2000:00+10ene310535 0.0 1023205
03:00+9e225812 0.0 102413
06:00+8ene116128 0.0 102510
09:00+14nne12466 0.0 1026519
12:00+17nnw333948 0.0 10251344
15:00+19nnw33345 0.0 10241601
18:00+20nw33335 0.0 10231593
21:00+16wnw1146100 0.0 102311